Regional Weather Roundup
Issued by NWS Sioux Falls, SD

Home | Current Version | Previous Version | Text Only | Print | Product List | Glossary Off
Versions: 1 2 3 4 5 6 7 8 9 10 11 12 13 14 15 16 17 18 19 20 21 22 23 24 25 26 27 28 29 30 31 32 33 34 35 36 37 38 39 40 41 42 43 44 45 46 47 48 49 50

000
ASUS43 KFSD 300202
RWRFSD

WEATHER ROUNDUP FOR SE SOUTH DAKOTA/SW MINNESOTA/NW IOWA
NATIONAL WEATHER SERVICE SIOUX FALLS SD
900 PM CDT FRI AUG 29 2014

NOTE: "FAIR" INDICATES FEW OR NO CLOUDS BELOW 12,000 FEET WITH NO
SIGNIFICANT WEATHER AND OR OBSTRUCTIONS TO VISIBILITY.


SDZ038>040-050-052>070-300300-
SOUTHEAST SOUTH DAKOTA

CITY           SKY/WX    TMP DP  RH WIND       PRES   REMARKS
CHAMBERLAIN    MOCLDY    71  59  67 NW10      29.89R
HURON          CLOUDY    71  63  75 N15       29.84R
MADISON        FAIR      66  66 100 W3        29.83R
MITCHELL       CLOUDY    67  65  93 NW5       29.83R
SIOUX FALLS    CLOUDY    67  66  97 CALM      29.82R
WINNER         FAIR      69  56  62 NW12      29.92R
YANKTON        CLOUDY    66  64  94 MISG      29.82R
$$

MNZ071-072-080-081-089-090-097-098-300300-
SOUTHWEST MINNESOTA

CITY           SKY/WX    TMP DP  RH WIND       PRES   REMARKS
FAIRMONT       CLOUDY    66  64  94 NW7       29.77R
JACKSON        CLOUDY    68  64  88 N3        29.79R
LUVERNE        CLOUDY    68  64  88 NW6       29.81R
MARSHALL       CLOUDY    66  64  94 CALM      29.78S
MONTEVIDEO     CLOUDY    70  70 100 NE6       29.80R
PIPESTONE      CLOUDY    66  64  94 CALM      29.82R FOG
REDWOOD FALLS  CLOUDY    66  65  96 CALM      29.78R
TRACY          CLOUDY    67  66  95 CALM      29.79S
WINDOM         CLOUDY    66  64  94 CALM      29.78S
WORTHINGTON    CLOUDY    66  64  94 NW6       29.80R
$$

IAZ001>003-012>014-020>022-031-032-NEZ013-014-SDZ071-300300-
NORTHWEST IOWA

CITY           SKY/WX    TMP DP  RH WIND       PRES   REMARKS
CHEROKEE       LGT RAIN  66  66 100 CALM      29.79R
DENISON        RAIN      66  66 100 W6        29.78R
ESTHERVILLE    CLOUDY    67  66  97 S7        29.77S
LE MARS        CLOUDY    68  68 100 CALM      29.81R
ORANGE CITY    CLOUDY    68  64  88 W3        29.81R FOG
SHELDON        CLOUDY    66  64  94 W6        29.78S
SIOUX CITY     CLOUDY    70  68  93 CALM      29.80R
SPENCER        CLOUDY    67  65  93 S3        29.78S
STORM LAKE     HVY RAIN  66  66 100 CALM      29.79F
$$

ABBREVIATIONS USED IN REMARKS
   TC - TEMPERATURE IN CELSIUS
  WCI - WIND CHILL INDEX
   HX - HEAT INDEX
  VSB - VISIBILITY



USA.gov is the U.S. government's official web portal to all federal, state and local government web resources and services.